SCP
-0 -0 -0 -0 -0 -0 -0 -0 -0 -0 -0 -0 -0 -0 -0 -0 -0 -0 -0 0 0 0 0 0 0 0 0 -0 0 0 0 0 0 0 -0 0 -0 0 -0 -0 0 -0 -0 -0 -1 -0 0
-0 -0 -0 -0 -0 -0 -0 -0 -0 -0 -0 0 0 0 -0 -0 -0 -0 -0 -0 -0 0 0 0 0 0 0 -0 0 -0 0 0 0 0 -0 0 0 0 0 -0 -0 0 -0 -0 -0 -0 -0
-0 -0 -0 -0 -0 -0 -0 -0 -0 -0 -0 -0 -0 0 0 0 0 -0 -0 -0 -0 -0 0 0 0 0 0 -0 0 0 -0 0 -0 0 0 0 0 0 -0 0 0 -0 -0 -0 -0 -0 -0
-0 -0 -0 -0 -0 -0 -0 -0 -0 -0 -0 0 0 0 0 0 0 0 -0 -0 -0 -0 0 0 0 0 -0 -0 -0 -0 -0 0 0 -0 0 0 0 0 0 0 0 -0 -0 -0 -0 -0 0
-0 -0 -0 -0 -0 -0 -0 -0 -0 -0 -0 -0 0 0 0 0 0 0 0 -0 -0 0 0 0 0 0 -0 0 0 0 -0 0 0 -0 0 0 -0 0 0 0 0 -0 0 0 -0 0 0
0 -0 -0 -0 -0 0 0 0 0 0 0 0 0 0 0 0 0 0 0 -0 0 0 0 0 0 0 0 -0 0 -0 0 0 0 -0 0 0 0 0 0 0 0 -0 0 0 -0 0 0
0 0 -0 -0 0 0 0 0 0 0 0 0 0 0 0 0 0 0 0 0 0 0 0 0 0 0 0 0 -0 0 0 -0 0 0 -0 0 0 0 0 0 0 0 0 0 -0 0 0
0 0 0 0 0 0 0 0 0 0 0 0 0 0 0 0 0 0 0 0 0 0 0 0 0 0 0 0 0 0 0 0 -0 -0 -0 -0 0 -0 0 0 0 0 -0 -0 0 0 -0
0 0 0 0 0 0 0 0 0 0 0 0 0 0 0 0 0 0 0 -0 0 0 0 0 0 0 -0 0 0 0 -0 0 -0 -0 -0 -0 -0 0 0 0 0 0 0 0 0 0 -0
0 0 0 0 0 0 0 0 0 0 0 0 0 0 0 0 0 0 0 0 0 0 0 0 0 -0 -0 -0 -0 -0 0 -0 -0 0 -0 0 -0 0 0 0 0 0 0 0 0 0 -0
0 0 0 0 0 0 0 0 0 0 0 0 0 -0 0 0 -0 0 0 0 0 0 0 0 -0 0 -0 0 -0 -0 0 0 0 0 0 -0 -0 0 0 -0 0 0 0 0 0 0 0
0 0 0 0 0 0 0 0 0 0 0 0 0 -0 0 0 0 0 0 0 0 0 0 0 0 0 0 0 0 0 0 0 -0 0 -0 0 -0 -0 0 0 0 0 0 0 -0 0 -0
0 0 0 0 0 0 0 0 0 0 0 0 0 0 0 0 0 0 0 0 0 0 -0 0 0 -0 0 0 0 -0 0 -0 0 -0 -0 0 -0 0 0 0 0 0 -0 0 0 0 -0
0 0 0 0 0 0 0 0 0 0 0 0 0 0 0 0 0 0 0 0 0 0 0 -0 0 -0 0 -0 0 -0 0 0 -0 -0 0 0 0 0 0 0 0 0 0 0 0 0 0
0 0 0 0 0 0 0 0 0 0 0 0 0 0 0 0 0 -0 0 0 0 -0 -0 0 0 0 -0 0 0 0 0 0 -0 -0 -0 -0 -0 0 0 0 0 0 0 0 0 0 0
0 0 0 0 0 0 0 0 0 0 0 0 0 0 0 0 0 0 0 -0 -0 0 -0 0 0 0 0 0 0 0 0 0 0 -0 0 0 0 0 -0 0 0 0 0 0 0 0 0
0 0 0 0 0 0 0 0 0 0 0 -0 0 0 0 0 0 0 0 0 -0 0 0 0 0 0 -0 -0 0 0 0 0 0 0 -0 -0 0 -0 0 0 1 0 0 0 0 0 0
0 0 0 0 0 0 0 0 0 0 0 0 0 0 0 0 0 0 0 0 -0 0 0 0 0 0 0 0 0 0 0 0 0 0 -0 -0 0 0 0 0 0 0 0 0 0 0 0
0 0 0 0 0 0 0 0 0 0 -0 0 0 -0 0 0 0 0 0 -0 0 0 0 0 0 0 0 0 0 0 0 0 0 0 -0 -0 0 0 0 0 0 0 0 0 0 0 0
0 0 0 0 0 0 0 0 0 0 0 0 0 0 0 0 0 -0 0 0 0 0 0 0 0 0 0 0 0 0 0 0 0 0 0 0 0 0 -0 0 0 0 0 0 0 0 0
0 0 0 0 0 0 0 0 0 0 0 0 0 0 0 0 0 0 0 0 0 0 -0 0 0 0 0 0 0 0 0 0 0 0 0 0 0 0 0 0 0 0 0 0 0 0 -0
0 0 0 0 0 0 0 0 0 0 0 0 0 0 0 -0 0 0 0 -0 -0 0 0 0 0 0 0 -0 0 0 0 0 0 0 0 0 0 0 0 0 0 0 0 0 0 0 0
0 0 0 0 0 0 0 0 0 0 0 0 0 0 0 0 0 0 0 0 0 0 0 0 0 0 0 0 0 0 0 0 0 0 0 0 0 0 0 0 0 0 0 0 0 0 0
0 0 0 0 0 0 0 0 0 0 0 0 0 0 0 0 0 0 0 0 0 0 0 0 0 0 0 0 0 0 0 0 0 0 0 0 0 0 0 0 0 0 0 -0 0 -0 0
0 0 0 0 0 0 0 0 0 0 0 0 0 0 0 0 0 0 0 0 0 0 0 0 0 0 0 0 0 0 0 0 0 0 0 0 0 0 0 0 0 0 0 -0 -0 -0 -0
0 0 0 0 0 0 0 0 0 0 0 0 0 0 0 0 0 0 0 0 0 0 0 0 0 0 0 0 0 0 0 0 0 0 0 0 0 0 0 0 0 0 0 -0 -0 0 -0
0 0 0 0 0 0 0 0 0 0 0 0 0 0 0 0 0 0 0 0 0 0 0 0 0 0 0 0 0 0 0 0 0 0 0 0 0 0 0 0 0 0 0 0 0 0 0
0 0 0 0 0 0 0 0 0 0 0 0 0 0 0 0 0 0 0 0 0 0 0 0 0 0 0 0 0 0 0 0 0 0 0 0 0 0 0 0 0 0 0 0 0 0 0
0 0 0 0 0 0 0 0 0 0 0 0 0 0 0 0 0 0 0 0 -0 0 0 0 0 0 0 0 0 0 0 0 0 0 0 0 0 0 0 0 0 0 -0 0 0 0 -0
Wind_Speed_500mb
31 31 32 32 32 32 32 32 32 32 33 34 35 37 39 40 40 40 42 40 39 39 38 37 37 35 30 23 53 34 22 19 14 35 44 47 39 37 34 37 25 36 33 54 92 35 14
31 31 31 31 31 32 32 33 33 35 36 36 35 37 39 42 42 42 42 41 40 40 38 36 35 32 28 38 40 26 25 30 33 39 47 51 37 41 38 41 37 13 41 64 36 23 20
30 31 31 32 34 34 34 34 35 35 35 36 37 37 39 39 39 43 43 42 40 39 37 35 33 32 31 61 26 22 32 32 34 44 52 54 49 46 44 40 38 57 36 35 35 39 26
30 31 32 32 33 35 37 39 40 40 41 42 42 41 41 42 41 41 41 42 41 38 35 32 30 26 32 43 37 40 29 38 36 42 49 47 46 55 58 33 20 46 32 31 34 38 27
28 30 32 34 36 37 38 39 39 40 42 43 44 45 44 43 43 43 41 38 38 37 33 28 23 23 41 24 45 50 54 44 47 42 46 54 57 53 44 34 34 42 30 24 25 32 28
30 32 34 36 36 37 39 41 43 44 45 46 48 50 49 48 45 43 41 33 30 33 30 24 24 18 48 45 45 46 45 49 46 48 53 62 36 31 33 35 28 37 21 27 17 24 51
29 31 32 33 35 37 40 42 45 48 50 51 53 53 53 52 45 43 37 20 13 12 36 38 32 48 57 30 30 45 51 51 51 51 43 50 32 38 46 33 20 27 30 16 1 55 29
28 29 31 34 37 41 45 48 51 53 55 55 55 55 56 49 44 37 34 16 20 22 25 53 62 64 57 43 39 38 52 59 55 44 46 41 44 46 46 14 5 3 10 18 17 47 22
28 30 33 37 41 45 48 50 53 55 58 60 60 59 58 52 40 22 22 28 31 25 22 49 64 71 70 54 43 42 54 66 44 47 47 48 49 47 50 24 8 7 4 9 13 43 48
27 30 35 39 43 47 51 54 56 59 63 65 64 61 60 53 20 15 18 11 14 13 14 28 62 75 67 67 54 51 56 65 47 54 51 49 49 46 34 37 34 19 12 22 29 4 25
30 33 37 41 44 48 54 59 62 62 63 65 65 64 59 44 20 14 14 10 9 9 13 1 47 24 78 72 66 55 58 61 56 52 36 50 54 51 35 58 36 19 40 29 11 26 42
33 36 39 42 44 47 53 60 66 66 64 66 62 63 53 19 11 13 16 14 10 12 25 7 23 19 41 62 63 53 65 59 63 51 55 51 63 51 48 27 19 42 34 24 42 43 24
35 37 39 43 46 50 55 61 67 71 69 68 59 55 33 13 13 2 9 11 12 19 19 12 33 29 37 44 53 57 55 51 46 46 49 56 53 45 37 12 31 43 26 12 13 22 31
35 37 39 43 48 54 59 62 67 73 71 69 54 39 14 9 13 13 8 16 20 26 41 41 6 39 32 39 46 54 49 48 53 56 39 45 45 52 43 39 43 25 20 12 18 19 29
35 37 40 43 48 55 62 66 67 72 70 71 47 14 16 15 11 11 20 21 18 31 29 29 22 26 31 40 35 49 57 51 53 52 53 46 55 45 54 37 38 8 5 11 5 9 12
36 39 42 46 50 55 60 64 69 72 68 58 45 13 19 8 9 12 17 33 40 47 45 25 31 30 23 30 40 45 50 56 50 57 58 52 34 29 47 37 24 19 27 18 7 6 13
38 40 44 49 52 54 58 61 67 74 66 49 24 16 7 7 16 19 18 29 36 50 42 11 29 40 43 44 33 43 41 52 48 51 54 54 16 40 19 33 50 23 16 9 11 7 6
40 42 45 50 52 52 56 58 62 70 75 55 15 9 11 13 17 21 22 33 40 41 43 24 19 36 43 35 22 25 32 39 51 51 56 55 47 32 44 48 40 46 34 32 16 16 8
40 42 45 48 51 51 53 55 58 58 66 66 24 32 13 17 14 19 27 34 28 33 25 31 37 32 38 32 20 27 36 36 37 46 53 45 42 26 23 20 43 16 43 41 38 15 24
40 40 42 45 49 50 50 51 55 53 46 45 19 11 13 22 31 28 30 28 29 33 32 25 33 39 36 36 28 31 34 27 35 27 17 44 46 38 25 33 28 9 41 44 40 18 18
39 38 39 43 46 48 49 50 53 53 28 32 15 20 31 16 31 37 35 29 33 36 42 18 23 34 35 32 34 33 37 42 42 29 29 31 47 50 53 56 37 25 27 62 46 39 31
39 39 39 41 43 44 46 47 49 50 37 14 23 20 37 48 47 38 30 32 33 32 34 30 19 29 30 34 36 36 24 34 29 29 33 37 33 38 48 48 36 17 11 66 32 44 36
39 39 38 39 40 42 44 44 44 44 37 17 30 26 24 29 33 30 24 33 28 32 27 28 29 33 40 21 33 39 40 42 43 37 30 38 31 34 39 43 37 18 45 15 27 54 49
39 38 36 36 37 40 40 41 38 35 32 17 27 31 28 20 25 29 43 41 35 35 36 39 39 33 40 48 48 49 45 44 40 34 33 33 32 29 28 15 27 31 46 40 38 51 27
41 39 37 36 35 37 38 36 36 34 29 23 19 24 22 17 34 34 37 34 43 43 39 39 41 41 42 45 30 31 28 36 42 41 34 34 25 22 27 30 33 23 35 52 46 44 50
39 41 38 36 34 36 36 32 33 34 32 26 18 14 19 20 12 38 37 37 29 30 29 32 32 33 26 19 22 32 27 38 31 38 38 38 35 23 22 26 42 34 4 11 49 17 57
41 39 38 36 36 34 34 31 31 30 32 28 21 14 14 26 43 42 34 32 42 31 24 38 39 21 16 18 25 29 31 37 37 46 36 33 30 31 25 19 20 1 13 10 11 5 41
38 38 39 38 35 34 33 31 30 29 26 28 23 22 25 21 57 54 24 41 43 41 22 30 29 18 16 22 23 26 28 27 34 39 39 36 29 28 26 25 24 13 13 7 6 11 58
37 38 39 33 33 34 33 32 31 29 27 27 36 13 19 36 57 81 86 74 72 74 63 47 46 45 14 12 13 13 24 22 28 27 34 33 31 28 25 24 20 14 18 35 25 19 21
Wind_Direction_500mb
359 358 357 355 353 349 347 344 342 338 334 327 316 306 300 298 295 293 293 292 290 290 291 292 293 298 300 265 251 270 250 239 234 213 212 217 223 235 243 257 335 267 276 165 247 211 212
7 6 5 3 359 357 354 350 345 341 336 333 328 322 311 300 295 290 288 288 288 287 288 288 288 290 292 263 258 224 253 249 245 217 216 221 226 235 247 261 258 36 337 280 285 268 174
6 7 6 5 4 1 358 355 351 346 341 336 331 326 320 313 300 295 289 284 284 283 285 285 284 284 265 244 254 241 226 250 232 217 218 223 230 238 237 250 285 301 214 275 261 261 197
7 6 6 5 2 359 358 356 352 350 346 342 337 331 325 320 313 301 290 284 279 278 280 281 279 276 258 261 254 242 242 230 223 222 222 225 232 242 262 283 44 300 257 264 251 213 217
5 5 4 3 0 359 357 355 354 350 347 345 341 337 331 326 317 308 297 286 277 274 274 274 270 236 263 264 230 228 227 237 217 220 224 231 234 243 257 255 243 238 253 263 346 310 197
3 3 3 2 1 360 359 358 355 352 349 346 343 339 335 330 320 310 304 293 277 270 266 263 228 248 252 240 229 221 219 220 222 213 214 229 239 244 243 253 251 253 7 43 356 297 350
4 4 4 5 5 4 0 357 354 350 346 343 341 338 335 334 322 313 309 311 280 245 212 214 208 208 277 222 214 214 210 211 220 214 217 213 225 231 236 245 55 51 27 102 206 271 299
8 9 9 6 3 360 357 353 349 345 342 338 336 332 330 334 321 309 298 258 275 316 287 240 245 239 252 269 219 227 200 204 217 215 215 223 219 235 241 234 175 182 357 75 314 261 275
13 9 4 1 358 355 352 348 345 341 337 336 335 331 327 332 323 315 309 261 276 303 278 267 241 235 233 236 239 216 207 203 214 214 221 223 230 217 243 157 103 301 188 9 52 319 300
7 2 359 356 352 350 346 345 343 341 337 335 332 329 325 328 316 292 283 298 276 272 278 256 216 233 225 222 232 226 212 209 216 221 228 235 233 250 233 183 148 155 140 60 48 319 255
358 355 353 350 349 348 346 344 343 342 338 333 331 326 324 321 275 251 309 322 287 243 275 47 198 206 204 207 218 220 230 203 221 218 224 232 240 236 194 256 169 209 142 123 276 266 254
347 347 347 346 348 348 347 344 343 343 341 332 330 324 327 321 329 288 238 302 273 234 243 179 126 174 192 205 214 231 209 223 221 228 229 235 239 240 241 189 148 136 143 234 188 205 231
345 346 347 346 346 348 349 346 341 341 342 333 331 323 322 283 186 2 261 240 222 239 241 221 168 202 209 205 208 220 198 216 210 219 230 236 234 240 256 88 345 166 209 205 185 228 240
347 347 348 348 348 347 346 345 342 340 344 334 333 327 332 331 223 287 193 220 245 255 238 291 223 181 195 213 204 212 224 211 212 221 221 230 229 204 241 165 192 225 163 300 213 232 236
349 348 349 350 348 346 346 345 343 340 345 337 337 329 337 331 237 199 222 222 241 255 343 345 301 262 199 205 212 204 226 210 217 218 228 227 235 223 200 249 135 155 99 304 99 42 285
346 346 347 347 346 348 347 347 346 342 346 341 337 297 233 228 197 187 229 249 264 273 302 308 301 294 237 240 217 193 212 230 208 217 229 239 242 226 207 205 105 142 135 214 75 211 244
341 343 343 343 346 348 349 350 349 343 346 346 330 266 165 177 176 219 237 247 256 265 266 304 280 288 299 277 261 221 211 224 217 217 218 236 186 275 276 228 133 131 154 92 100 140 158
333 337 338 340 343 346 351 353 354 349 344 354 311 281 168 163 211 229 249 253 261 283 298 297 270 279 286 312 302 301 239 218 216 219 225 220 242 200 271 271 195 167 170 160 202 181 161
328 332 334 338 340 345 351 353 354 356 347 343 307 291 197 186 259 263 276 244 243 273 284 278 274 258 284 298 304 291 290 285 249 218 221 226 226 224 186 312 295 206 168 185 182 143 181
328 328 331 336 338 343 350 352 354 358 347 337 298 311 159 218 257 270 277 297 303 292 267 260 268 279 261 263 268 280 292 284 293 275 259 236 232 230 199 193 241 262 276 224 206 185 180
329 327 331 335 337 341 347 352 356 358 360 340 290 327 342 299 316 331 325 314 297 294 300 228 276 244 267 259 263 261 269 280 291 298 291 273 238 245 253 190 184 202 265 292 223 217 216
327 328 333 334 337 339 343 351 354 359 6 347 355 339 326 298 289 279 270 264 261 269 275 314 266 307 258 239 252 259 305 284 288 277 257 255 255 250 251 173 177 130 206 258 292 298 216
322 326 330 331 334 338 340 346 352 356 12 357 348 332 308 296 293 286 307 339 316 328 315 297 305 303 289 9 348 327 316 296 295 304 299 244 241 244 252 257 148 155 216 252 278 280 283
317 321 320 324 328 333 336 338 343 352 3 355 339 335 313 302 313 321 330 312 305 299 301 288 293 295 294 331 322 307 289 272 273 271 285 289 241 241 255 164 177 200 216 203 202 245 296
306 313 313 316 321 326 328 330 333 342 347 352 338 331 322 301 311 309 332 320 321 302 283 268 269 264 279 289 290 285 278 265 264 258 253 271 272 243 252 247 262 194 200 215 218 211 198
305 303 308 310 314 318 322 326 329 333 337 339 322 310 303 303 198 341 324 317 315 325 301 269 272 260 268 263 268 258 247 253 240 249 242 245 258 261 269 274 249 248 52 194 218 268 199
298 299 300 302 309 311 315 318 322 323 326 328 309 281 277 285 283 322 310 300 300 294 297 306 340 303 249 252 250 251 251 249 249 229 223 229 237 239 234 257 274 111 63 33 340 7 355
304 305 303 298 302 302 303 307 314 314 318 313 298 298 270 263 285 285 279 310 303 295 282 288 314 253 247 255 244 252 261 260 254 256 222 215 227 232 237 221 235 54 322 239 72 50 23
301 300 300 300 297 297 298 301 307 306 312 302 297 304 310 257 263 287 285 278 265 257 262 274 280 297 319 323 336 305 291 286 266 266 256 229 217 227 229 228 254 139 244 103 144 211 150
Wind_Speed_850mb
31 31 32 32 32 32 32 32 32 32 33 34 35 37 39 40 40 40 42 40 39 39 38 37 37 35 30 23 53 34 22 19 14 35 44 47 39 37 34 37 25 36 33 54 92 35 14
31 31 31 31 31 32 32 33 33 35 36 36 35 37 39 42 42 42 42 41 40 40 38 36 35 32 28 38 40 26 25 30 33 39 47 51 37 41 38 41 37 13 41 64 36 23 20
30 31 31 32 34 34 34 34 35 35 35 36 37 37 39 39 39 43 43 42 40 39 37 35 33 32 31 61 26 22 32 32 34 44 52 54 49 46 44 40 38 57 36 35 35 39 26
30 31 32 32 33 35 37 39 40 40 41 42 42 41 41 42 41 41 41 42 41 38 35 32 30 26 32 43 37 40 29 38 36 42 49 47 46 55 58 33 20 46 32 31 34 38 27
28 30 32 34 36 37 38 39 39 40 42 43 44 45 44 43 43 43 41 38 38 37 33 28 23 23 41 24 45 50 54 44 47 42 46 54 57 53 44 34 34 42 30 24 25 32 28
30 32 34 36 36 37 39 41 43 44 45 46 48 50 49 48 45 43 41 33 30 33 30 24 24 18 48 45 45 46 45 49 46 48 53 62 36 31 33 35 28 37 21 27 17 24 51
29 31 32 33 35 37 40 42 45 48 50 51 53 53 53 52 45 43 37 20 13 12 36 38 32 48 57 30 30 45 51 51 51 51 43 50 32 38 46 33 20 27 30 16 1 55 29
28 29 31 34 37 41 45 48 51 53 55 55 55 55 56 49 44 37 34 16 20 22 25 53 62 64 57 43 39 38 52 59 55 44 46 41 44 46 46 14 5 3 10 18 17 47 22
28 30 33 37 41 45 48 50 53 55 58 60 60 59 58 52 40 22 22 28 31 25 22 49 64 71 70 54 43 42 54 66 44 47 47 48 49 47 50 24 8 7 4 9 13 43 48
27 30 35 39 43 47 51 54 56 59 63 65 64 61 60 53 20 15 18 11 14 13 14 28 62 75 67 67 54 51 56 65 47 54 51 49 49 46 34 37 34 19 12 22 29 4 25
30 33 37 41 44 48 54 59 62 62 63 65 65 64 59 44 20 14 14 10 9 9 13 1 47 24 78 72 66 55 58 61 56 52 36 50 54 51 35 58 36 19 40 29 11 26 42
33 36 39 42 44 47 53 60 66 66 64 66 62 63 53 19 11 13 16 14 10 12 25 7 23 19 41 62 63 53 65 59 63 51 55 51 63 51 48 27 19 42 34 24 42 43 24
35 37 39 43 46 50 55 61 67 71 69 68 59 55 33 13 13 2 9 11 12 19 19 12 33 29 37 44 53 57 55 51 46 46 49 56 53 45 37 12 31 43 26 12 13 22 31
35 37 39 43 48 54 59 62 67 73 71 69 54 39 14 9 13 13 8 16 20 26 41 41 6 39 32 39 46 54 49 48 53 56 39 45 45 52 43 39 43 25 20 12 18 19 29
35 37 40 43 48 55 62 66 67 72 70 71 47 14 16 15 11 11 20 21 18 31 29 29 22 26 31 40 35 49 57 51 53 52 53 46 55 45 54 37 38 8 5 11 5 9 12
36 39 42 46 50 55 60 64 69 72 68 58 45 13 19 8 9 12 17 33 40 47 45 25 31 30 23 30 40 45 50 56 50 57 58 52 34 29 47 37 24 19 27 18 7 6 13
38 40 44 49 52 54 58 61 67 74 66 49 24 16 7 7 16 19 18 29 36 50 42 11 29 40 43 44 33 43 41 52 48 51 54 54 16 40 19 33 50 23 16 9 11 7 6
40 42 45 50 52 52 56 58 62 70 75 55 15 9 11 13 17 21 22 33 40 41 43 24 19 36 43 35 22 25 32 39 51 51 56 55 47 32 44 48 40 46 34 32 16 16 8
40 42 45 48 51 51 53 55 58 58 66 66 24 32 13 17 14 19 27 34 28 33 25 31 37 32 38 32 20 27 36 36 37 46 53 45 42 26 23 20 43 16 43 41 38 15 24
40 40 42 45 49 50 50 51 55 53 46 45 19 11 13 22 31 28 30 28 29 33 32 25 33 39 36 36 28 31 34 27 35 27 17 44 46 38 25 33 28 9 41 44 40 18 18
39 38 39 43 46 48 49 50 53 53 28 32 15 20 31 16 31 37 35 29 33 36 42 18 23 34 35 32 34 33 37 42 42 29 29 31 47 50 53 56 37 25 27 62 46 39 31
39 39 39 41 43 44 46 47 49 50 37 14 23 20 37 48 47 38 30 32 33 32 34 30 19 29 30 34 36 36 24 34 29 29 33 37 33 38 48 48 36 17 11 66 32 44 36
39 39 38 39 40 42 44 44 44 44 37 17 30 26 24 29 33 30 24 33 28 32 27 28 29 33 40 21 33 39 40 42 43 37 30 38 31 34 39 43 37 18 45 15 27 54 49
39 38 36 36 37 40 40 41 38 35 32 17 27 31 28 20 25 29 43 41 35 35 36 39 39 33 40 48 48 49 45 44 40 34 33 33 32 29 28 15 27 31 46 40 38 51 27
41 39 37 36 35 37 38 36 36 34 29 23 19 24 22 17 34 34 37 34 43 43 39 39 41 41 42 45 30 31 28 36 42 41 34 34 25 22 27 30 33 23 35 52 46 44 50
39 41 38 36 34 36 36 32 33 34 32 26 18 14 19 20 12 38 37 37 29 30 29 32 32 33 26 19 22 32 27 38 31 38 38 38 35 23 22 26 42 34 4 11 49 17 57
41 39 38 36 36 34 34 31 31 30 32 28 21 14 14 26 43 42 34 32 42 31 24 38 39 21 16 18 25 29 31 37 37 46 36 33 30 31 25 19 20 1 13 10 11 5 41
38 38 39 38 35 34 33 31 30 29 26 28 23 22 25 21 57 54 24 41 43 41 22 30 29 18 16 22 23 26 28 27 34 39 39 36 29 28 26 25 24 13 13 7 6 11 58
37 38 39 33 33 34 33 32 31 29 27 27 36 13 19 36 57 81 86 74 72 74 63 47 46 45 14 12 13 13 24 22 28 27 34 33 31 28 25 24 20 14 18 35 25 19 21
Wind_Direction_850mb
359 358 357 355 353 349 347 344 342 338 334 327 316 306 300 298 295 293 293 292 290 290 291 292 293 298 300 265 251 270 250 239 234 213 212 217 223 235 243 257 335 267 276 165 247 211 212
7 6 5 3 359 357 354 350 345 341 336 333 328 322 311 300 295 290 288 288 288 287 288 288 288 290 292 263 258 224 253 249 245 217 216 221 226 235 247 261 258 36 337 280 285 268 174
6 7 6 5 4 1 358 355 351 346 341 336 331 326 320 313 300 295 289 284 284 283 285 285 284 284 265 244 254 241 226 250 232 217 218 223 230 238 237 250 285 301 214 275 261 261 197
7 6 6 5 2 359 358 356 352 350 346 342 337 331 325 320 313 301 290 284 279 278 280 281 279 276 258 261 254 242 242 230 223 222 222 225 232 242 262 283 44 300 257 264 251 213 217
5 5 4 3 0 359 357 355 354 350 347 345 341 337 331 326 317 308 297 286 277 274 274 274 270 236 263 264 230 228 227 237 217 220 224 231 234 243 257 255 243 238 253 263 346 310 197
3 3 3 2 1 360 359 358 355 352 349 346 343 339 335 330 320 310 304 293 277 270 266 263 228 248 252 240 229 221 219 220 222 213 214 229 239 244 243 253 251 253 7 43 356 297 350
4 4 4 5 5 4 0 357 354 350 346 343 341 338 335 334 322 313 309 311 280 245 212 214 208 208 277 222 214 214 210 211 220 214 217 213 225 231 236 245 55 51 27 102 206 271 299
8 9 9 6 3 360 357 353 349 345 342 338 336 332 330 334 321 309 298 258 275 316 287 240 245 239 252 269 219 227 200 204 217 215 215 223 219 235 241 234 175 182 357 75 314 261 275
13 9 4 1 358 355 352 348 345 341 337 336 335 331 327 332 323 315 309 261 276 303 278 267 241 235 233 236 239 216 207 203 214 214 221 223 230 217 243 157 103 301 188 9 52 319 300
7 2 359 356 352 350 346 345 343 341 337 335 332 329 325 328 316 292 283 298 276 272 278 256 216 233 225 222 232 226 212 209 216 221 228 235 233 250 233 183 148 155 140 60 48 319 255
358 355 353 350 349 348 346 344 343 342 338 333 331 326 324 321 275 251 309 322 287 243 275 47 198 206 204 207 218 220 230 203 221 218 224 232 240 236 194 256 169 209 142 123 276 266 254
347 347 347 346 348 348 347 344 343 343 341 332 330 324 327 321 329 288 238 302 273 234 243 179 126 174 192 205 214 231 209 223 221 228 229 235 239 240 241 189 148 136 143 234 188 205 231
345 346 347 346 346 348 349 346 341 341 342 333 331 323 322 283 186 2 261 240 222 239 241 221 168 202 209 205 208 220 198 216 210 219 230 236 234 240 256 88 345 166 209 205 185 228 240
347 347 348 348 348 347 346 345 342 340 344 334 333 327 332 331 223 287 193 220 245 255 238 291 223 181 195 213 204 212 224 211 212 221 221 230 229 204 241 165 192 225 163 300 213 232 236
349 348 349 350 348 346 346 345 343 340 345 337 337 329 337 331 237 199 222 222 241 255 343 345 301 262 199 205 212 204 226 210 217 218 228 227 235 223 200 249 135 155 99 304 99 42 285
346 346 347 347 346 348 347 347 346 342 346 341 337 297 233 228 197 187 229 249 264 273 302 308 301 294 237 240 217 193 212 230 208 217 229 239 242 226 207 205 105 142 135 214 75 211 244
341 343 343 343 346 348 349 350 349 343 346 346 330 266 165 177 176 219 237 247 256 265 266 304 280 288 299 277 261 221 211 224 217 217 218 236 186 275 276 228 133 131 154 92 100 140 158
333 337 338 340 343 346 351 353 354 349 344 354 311 281 168 163 211 229 249 253 261 283 298 297 270 279 286 312 302 301 239 218 216 219 225 220 242 200 271 271 195 167 170 160 202 181 161
328 332 334 338 340 345 351 353 354 356 347 343 307 291 197 186 259 263 276 244 243 273 284 278 274 258 284 298 304 291 290 285 249 218 221 226 226 224 186 312 295 206 168 185 182 143 181
328 328 331 336 338 343 350 352 354 358 347 337 298 311 159 218 257 270 277 297 303 292 267 260 268 279 261 263 268 280 292 284 293 275 259 236 232 230 199 193 241 262 276 224 206 185 180
329 327 331 335 337 341 347 352 356 358 360 340 290 327 342 299 316 331 325 314 297 294 300 228 276 244 267 259 263 261 269 280 291 298 291 273 238 245 253 190 184 202 265 292 223 217 216
327 328 333 334 337 339 343 351 354 359 6 347 355 339 326 298 289 279 270 264 261 269 275 314 266 307 258 239 252 259 305 284 288 277 257 255 255 250 251 173 177 130 206 258 292 298 216
322 326 330 331 334 338 340 346 352 356 12 357 348 332 308 296 293 286 307 339 316 328 315 297 305 303 289 9 348 327 316 296 295 304 299 244 241 244 252 257 148 155 216 252 278 280 283
317 321 320 324 328 333 336 338 343 352 3 355 339 335 313 302 313 321 330 312 305 299 301 288 293 295 294 331 322 307 289 272 273 271 285 289 241 241 255 164 177 200 216 203 202 245 296
306 313 313 316 321 326 328 330 333 342 347 352 338 331 322 301 311 309 332 320 321 302 283 268 269 264 279 289 290 285 278 265 264 258 253 271 272 243 252 247 262 194 200 215 218 211 198
305 303 308 310 314 318 322 326 329 333 337 339 322 310 303 303 198 341 324 317 315 325 301 269 272 260 268 263 268 258 247 253 240 249 242 245 258 261 269 274 249 248 52 194 218 268 199
298 299 300 302 309 311 315 318 322 323 326 328 309 281 277 285 283 322 310 300 300 294 297 306 340 303 249 252 250 251 251 249 249 229 223 229 237 239 234 257 274 111 63 33 340 7 355
304 305 303 298 302 302 303 307 314 314 318 313 298 298 270 263 285 285 279 310 303 295 282 288 314 253 247 255 244 252 261 260 254 256 222 215 227 232 237 221 235 54 322 239 72 50 23
301 300 300 300 297 297 298 301 307 306 312 302 297 304 310 257 263 287 285 278 265 257 262 274 280 297 319 323 336 305 291 286 266 266 256 229 217 227 229 228 254 139 244 103 144 211 150